Location: *
(50.3194°N, 7.1067°E)
Time: 00:43:38
(UTC+00:00)

Cosmos 1733 - Pass Details

Date: 22 September 2019
Orbit: 507 x 522 km, 82.5° (Epoch: 20 October)

Event Time Altitude Azimuth Distance (km) Brightness Sun altitude
Exits shadow 19:39:11 39° 44° (NE) 786 3.9 -20.6°
Drops below altitude 10° 19:41:53 10° 19° (NNE) 1,749 6.0 -21.0°
Sets 19:44:03 0° 14° (NNE) 2,644 7.0 -21.3°
